Tracking 27112 objects as of 27-Mar-2023
HD Live streaming from Space Station
objects crossing your sky now

STARLINK-1802

Track STARLINK-1802 now!
10-day predictions
STARLINK-1802 is classified as:


NORAD ID: 46702
Int'l Code: 2020-073AJ
Perigee: 554.0 km
Apogee: 555.0 km
Inclination: 53.1 °
Period: 95.6 minutes
Semi major axis: 6925 km
RCS: Unknown
Launch date: October 18, 2020
Source: United States (US)
Launch site: AIR FORCE EASTERN TEST RANGE (AFETR)
Your satellite tracking list
Your tracking list is empty




NASA's NSSDC Master Catalog

Two Line Element Set (TLE):
1 46702U 20073AJ  23085.11036901  .00028122  00000-0  19019-2 0  9997
2 46702  53.0571  28.0381 0000669  88.4567 271.6499 15.06349404134690
Source of the keplerian elements: AFSPC